GFSFLT1_sfc_temp_057.txt.gz
Temp
85 83 84 83 83 83 82 83 83 82 80 79 79 80 80 81 81 84 84 84 86 85 87 87 87 85 86 85 85 85 84 85 86
83 83 84 84 84 84 84 84 83 82 81 80 80 81 81 80 81 81 83 83 83 86 84 87 86 86 85 86 85 85 84 86 84
85 85 85 86 85 85 86 86 86 84 83 81 82 82 82 82 82 81 83 82 81 83 84 83 85 85 86 86 85 85 84 85 85
88 86 86 86 87 87 87 87 87 86 84 82 82 82 82 82 83 83 82 82 82 83 83 83 83 84 84 85 85 85 83 83 85
89 88 87 88 88 88 88 87 88 86 86 85 84 84 82 82 82 83 82 82 82 83 82 83 83 84 84 84 85 85 83 83 86
85 86 87 88 89 88 88 88 87 88 87 88 88 85 84 83 83 82 82 82 83 82 82 83 84 83 83 84 85 84 84 84 84
85 84 85 86 87 87 88 86 85 86 87 89 88 87 85 83 83 83 83 83 82 82 82 82 83 83 83 84 85 85 85 84 84
79 81 83 84 85 85 85 85 84 85 87 86 88 84 85 83 83 83 83 82 82 82 82 83 83 83 83 84 85 88 85 85 85
74 76 79 83 85 86 85 86 83 84 84 85 86 83 83 83 82 82 81 81 81 81 81 82 82 82 82 83 86 76 71 80 86
69 71 74 76 80 86 86 87 84 83 83 85 83 82 83 82 81 80 80 81 81 80 81 81 80 81 82 82 83 69 68 70 86
67 69 71 73 78 81 88 91 91 87 86 82 82 81 81 82 81 80 81 80 80 80 81 81 81 81 82 82 83 68 66 68 81
68 69 71 74 77 79 85 89 89 85 84 83 82 81 81 81 82 81 81 80 80 81 80 80 81 82 81 81 82 65 64 67 82
66 70 71 72 79 82 88 88 90 85 83 83 81 82 82 82 82 81 80 80 80 81 82 82 84 82 82 77 82 66 62 66 83
67 68 70 77 81 86 86 88 87 82 83 82 84 85 84 82 82 81 82 81 82 81 81 83 81 82 83 82 80 80 60 59 80
64 66 69 73 77 79 85 86 84 81 80 84 84 84 83 82 82 84 84 81 81 81 81 80 80 80 82 85 83 67 63 59 61
63 64 66 71 73 72 76 81 84 81 81 82 82 82 82 81 82 82 84 81 80 81 81 83 82 83 84 85 87 86 61 58 58
61 63 63 67 69 69 70 73 76 77 80 82 81 80 81 82 81 81 83 84 84 84 84 82 84 84 85 87 87 87 88 80 73
59 60 62 63 63 64 65 71 73 76 77 81 81 81 82 81 83 81 82 84 84 84 86 82 85 86 87 86 86 87 77 78 86
58 58 61 61 62 62 63 68 70 71 73 77 78 79 81 77 84 79 85 84 76 50 51 49 49 50 67 86 65 57 54 53 53
59 60 59 61 61 63 64 67 68 68 69 71 72 75 73 71 71 80 76 78 80 79 64 47 46 45 48 50 54 54 50 48 48

GFSFLT1_sfc_temp_060.txt.gz
Temp
95 94 95 93 91 91 90 90 89 89 87 84 85 85 85 85 86 89 90 89 92 92 94 94 93 90 91 90 91 90 89 91 91
95 95 95 94 93 92 91 90 90 89 87 85 86 87 86 85 86 86 90 90 89 93 92 95 93 92 90 91 91 90 88 91 89
95 97 96 96 94 93 92 93 92 90 89 86 87 88 88 88 87 87 88 89 88 89 92 90 92 90 90 90 90 90 88 91 90
97 96 96 96 96 96 95 94 93 91 90 88 88 89 89 89 89 89 88 88 88 88 89 90 88 89 89 90 90 90 88 88 90
98 99 99 98 98 97 95 94 94 93 92 91 90 91 89 88 89 89 89 87 88 88 87 89 88 89 88 89 90 90 88 88 91
96 97 99 99 100 97 96 95 93 94 94 94 94 91 90 90 89 89 89 88 88 88 87 87 90 89 88 88 90 89 89 89 89
95 95 95 97 97 97 96 94 93 94 95 97 96 94 92 90 89 90 90 89 88 88 88 87 88 89 89 89 90 90 90 90 89
88 89 93 94 95 95 94 93 93 92 94 95 97 94 92 91 90 90 90 89 88 88 88 88 88 88 89 89 91 94 90 90 90
84 87 88 91 94 94 94 93 92 92 92 94 95 93 92 91 88 88 88 88 87 87 87 87 87 88 88 88 93 79 73 83 90
81 82 84 86 89 93 95 95 94 92 92 94 92 90 90 90 88 86 86 87 86 86 86 87 86 87 88 88 89 72 70 72 90
77 79 81 83 87 89 92 99 100 95 94 91 90 89 88 88 87 86 86 86 86 85 86 86 86 86 87 87 89 69 67 69 86
75 77 79 82 86 88 88 91 96 95 93 91 89 88 87 88 88 86 86 85 85 86 86 86 86 87 86 86 87 67 65 69 86
74 77 78 80 83 86 88 88 94 96 92 90 88 88 88 88 88 87 86 86 85 86 86 87 90 89 88 81 87 68 63 69 88
72 75 77 79 84 87 88 91 92 94 91 90 90 90 90 89 88 87 87 86 86 86 86 88 86 87 88 88 85 85 61 59 85
67 68 74 75 81 87 93 94 92 92 87 91 90 90 89 88 87 89 89 86 85 86 85 84 85 84 87 91 88 69 62 59 62
64 66 68 70 72 76 87 91 92 87 87 89 88 88 87 86 86 86 89 85 84 86 85 88 86 88 88 91 95 91 63 58 58
61 61 62 65 69 69 71 78 84 88 88 88 87 86 85 86 85 85 88 90 89 89 90 88 91 91 92 94 95 95 96 86 75
58 59 61 61 62 65 68 71 73 77 84 86 86 86 87 87 89 86 87 89 90 92 93 87 93 94 95 94 94 95 83 84 94
57 57 60 60 61 61 63 67 70 71 74 83 86 86 88 89 91 89 91 90 86 51 54 51 52 53 68 95 69 60 57 57 56
58 59 59 60 60 61 62 63 65 69 72 76 81 79 82 85 85 89 88 86 87 85 70 49 47 49 50 51 54 52 51 48 48

GFSFLT1_sfc_temp_063.txt.gz
Temp
99 98 99 97 95 94 93 94 93 92 89 85 86 87 85 85 87 91 91 91 94 94 96 97 94 91 92 91 91 90 89 89 90
93 98 99 98 97 96 95 94 93 91 90 87 87 88 87 86 86 87 90 90 91 94 93 98 96 94 91 92 92 92 90 91 88
96 98 100 100 99 97 97 96 95 94 93 89 88 89 89 89 87 87 89 90 90 90 93 93 94 93 92 91 92 91 90 91 91
99 100 101 101 101 100 99 98 96 95 93 91 89 90 89 89 89 89 89 90 91 90 92 92 91 91 91 91 90 91 89 89 91
100 101 102 103 103 101 100 98 97 96 95 93 92 91 89 89 90 90 90 89 90 91 89 91 91 90 90 90 91 91 89 88 91
98 100 101 102 103 101 100 99 97 97 96 96 96 92 92 91 91 90 90 89 90 90 89 89 91 90 89 89 90 90 91 90 89
98 99 100 102 102 101 100 99 97 96 97 98 97 95 94 91 90 91 91 91 89 90 89 89 89 90 90 90 90 91 91 91 90
95 94 97 100 102 101 99 98 96 96 97 98 98 95 95 92 91 91 91 90 90 90 90 89 89 89 90 91 92 94 90 91 91
88 91 94 96 99 100 100 98 97 96 96 98 97 94 94 93 90 89 89 89 89 88 88 89 88 89 89 89 93 80 75 85 91
86 89 91 92 94 98 101 100 98 97 95 97 95 94 93 92 90 88 88 89 88 87 87 89 87 88 89 88 90 73 71 73 92
83 85 87 88 92 94 96 103 104 100 98 93 93 92 93 91 90 88 88 88 87 87 88 87 87 87 88 88 90 72 67 70 89
80 82 84 86 90 92 92 95 99 100 98 94 93 92 91 92 91 89 88 87 87 88 88 87 88 89 88 87 88 68 66 70 88
80 82 83 84 86 89 91 91 95 97 98 95 91 93 92 92 91 90 88 87 87 88 89 89 91 90 90 82 88 69 64 70 90
76 78 79 79 81 86 88 91 93 91 95 95 95 94 94 92 91 89 89 88 88 88 88 89 87 89 90 89 87 86 62 61 86
72 73 75 76 75 77 88 94 93 90 88 95 94 93 92 90 89 92 92 87 87 87 87 85 86 86 89 92 91 72 62 60 64
69 70 72 71 69 72 73 80 93 89 89 93 92 91 89 89 89 89 90 87 86 87 86 89 87 89 89 92 95 92 64 59 59
67 69 69 67 65 65 65 69 75 77 92 93 91 88 88 89 88 87 89 91 90 89 90 89 92 91 92 93 96 98 97 83 73
64 64 67 64 62 62 63 64 66 71 75 83 89 88 89 89 89 87 88 90 92 92 93 89 93 95 96 96 96 97 86 87 90
59 61 62 60 60 61 62 62 63 64 67 69 78 83 88 91 92 89 90 91 86 53 60 52 53 52 69 85 60 56 53 53 55
58 59 60 59 60 61 61 61 61 62 64 66 72 79 83 92 88 93 92 92 90 87 67 52 50 52 52 52 51 53 51 52 51

GFSFLT1_sfc_temp_069.txt.gz
Temp
76 70 72 80 85 86 85 82 82 81 79 78 78 78 78 75 75 77 75 77 77 83 82 81 79 78 78 78 78 78 76 76 76
71 72 73 72 78 86 85 84 82 81 79 79 78 78 78 77 75 77 76 77 78 79 79 81 80 80 79 79 78 78 76 75 75
69 70 69 72 71 75 83 87 84 83 80 79 79 80 79 79 78 77 75 77 77 78 79 80 78 81 81 79 78 77 76 75 76
70 70 70 70 70 70 71 75 84 84 81 79 79 80 80 80 79 79 75 77 77 77 79 78 80 79 78 78 78 78 76 76 76
74 75 73 70 71 72 70 73 86 86 84 80 80 80 81 80 80 79 80 75 75 77 77 77 79 81 81 79 78 78 77 77 79
75 77 79 73 73 74 71 75 83 87 86 82 82 82 80 80 80 79 79 80 75 78 77 79 79 79 79 79 78 77 77 77 77
74 77 78 75 76 73 73 71 73 89 88 87 84 82 81 80 80 80 80 81 81 77 81 77 77 78 78 78 78 78 78 77 77
71 72 74 71 70 70 71 72 72 74 89 88 87 83 82 81 81 82 81 81 79 81 80 82 80 76 77 79 80 82 77 78 78
67 69 75 73 75 73 71 73 72 73 84 89 89 85 82 83 82 82 81 80 80 79 80 79 81 81 80 78 83 76 73 78 79
67 66 70 71 71 71 70 71 73 70 70 84 88 86 84 83 82 81 81 81 80 79 79 81 79 79 80 79 81 71 71 73 82
64 66 67 71 70 70 70 69 69 70 71 71 76 83 84 83 82 81 81 81 80 80 80 80 81 80 80 80 81 70 69 71 80
68 67 68 69 72 71 72 72 71 70 72 70 70 78 83 83 83 81 81 80 81 81 81 80 81 81 80 79 80 68 67 68 74
67 68 68 68 69 69 69 69 69 69 67 68 69 77 82 83 83 82 81 81 82 82 82 82 81 81 82 77 80 68 65 67 80
64 66 67 68 66 64 66 67 65 65 67 70 74 79 81 83 84 83 82 82 83 83 82 82 81 81 82 81 79 80 63 62 80
62 62 65 65 62 63 63 65 62 62 63 66 70 71 78 81 83 85 83 82 82 82 82 80 80 80 80 82 82 69 64 61 63
61 61 63 62 60 60 61 62 62 61 62 64 66 68 73 76 83 84 86 82 81 80 81 80 80 79 79 80 83 83 64 60 60
59 60 60 64 60 57 57 59 60 62 62 63 64 66 71 79 80 82 85 84 83 82 81 80 80 80 80 81 82 83 84 70 65
55 56 58 58 57 55 56 57 58 61 62 61 62 64 70 79 84 79 83 84 82 83 84 81 82 82 82 81 80 82 77 75 76
56 57 58 56 58 57 54 55 56 59 59 59 60 61 69 77 84 80 82 82 72 53 55 57 58 63 76 73 62 63 63 57 58
53 56 55 55 55 55 53 53 56 58 59 61 59 59 63 68 71 77 79 79 80 71 61 52 48 50 59 58 60 49 49 50 52

GFSFLT1_sfc_temp_072.txt.gz
Temp
76 74 70 77 81 80 80 79 79 78 76 76 77 77 75 72 74 74 74 74 78 79 80 79 77 78 76 76 75 75 74 73 73
72 72 76 77 74 77 78 80 79 79 77 77 77 77 78 76 74 73 74 74 74 78 81 80 76 78 77 76 76 75 74 73 73
71 71 73 74 74 74 74 77 79 80 79 78 77 78 79 78 76 74 74 74 74 75 77 77 76 77 78 76 76 75 74 73 73
73 71 74 74 72 73 73 74 79 80 79 79 77 78 79 78 78 76 72 74 76 75 75 77 77 78 78 77 75 75 73 73 73
73 73 77 72 74 75 73 73 75 80 80 79 79 79 79 78 78 78 75 72 74 75 75 75 76 78 78 78 77 75 74 73 76
70 70 70 73 77 75 76 77 74 78 81 79 80 79 79 78 78 78 78 78 73 74 75 74 75 77 78 77 77 76 76 76 74
70 72 72 69 71 73 70 71 75 75 81 82 81 80 79 78 78 79 79 80 78 72 76 75 75 76 78 79 79 78 77 76 74
67 68 68 69 68 69 70 70 70 73 79 80 81 80 79 79 79 79 79 79 79 77 75 78 77 77 77 77 79 80 78 77 76
64 65 68 67 68 70 70 72 71 72 72 73 80 80 79 79 79 79 78 78 79 78 77 77 76 75 78 77 81 74 71 76 75
62 64 64 64 66 67 67 69 70 69 69 71 72 78 80 80 79 78 78 78 77 77 77 79 78 78 76 76 77 70 69 71 78
61 63 63 64 65 66 68 68 69 69 70 71 70 72 80 79 80 79 79 79 77 78 77 77 78 77 79 79 79 68 67 70 77
62 62 64 64 66 65 65 65 65 67 70 71 70 70 70 75 77 79 79 78 78 78 78 77 78 79 77 77 79 66 66 67 76
62 63 64 63 64 65 65 62 63 65 66 67 68 69 68 71 74 76 78 79 79 80 80 79 79 79 80 76 79 67 64 65 78
61 64 64 64 64 63 63 64 62 61 62 63 64 66 67 69 71 81 82 81 76 81 80 80 79 79 80 80 77 79 62 61 77
59 60 62 63 61 60 62 63 62 59 59 61 64 65 65 67 70 77 83 81 79 78 80 78 78 78 78 80 80 68 64 61 62
54 58 59 61 60 59 59 60 58 57 60 61 61 62 64 65 68 73 83 81 81 79 80 79 78 78 78 78 80 80 63 60 60
51 54 57 59 57 57 57 57 58 57 59 60 59 61 62 65 67 72 76 79 82 81 80 79 79 78 77 79 79 80 81 71 65
50 51 55 56 53 55 55 56 55 57 59 59 59 60 61 63 68 71 75 78 76 81 81 80 80 80 80 78 78 79 74 74 75
50 50 55 56 56 56 53 52 54 55 57 58 58 58 61 61 63 67 78 76 68 53 56 57 58 60 74 81 69 62 59 57 56
51 53 53 50 53 50 50 50 50 54 55 57 55 55 58 60 61 66 72 79 74 71 61 52 51 53 56 57 64 53 52 53 52

GFSFLT1_sfc_temp_075.txt.gz
Temp
73 74 74 77 79 79 78 78 77 76 75 75 75 75 74 72 72 73 72 72 72 74 75 76 75 74 74 74 73 73 72 72 72
70 72 75 76 77 78 78 78 77 76 75 76 76 76 76 73 72 72 72 72 72 74 75 78 75 75 75 75 74 73 73 72 72
70 72 73 74 77 77 78 79 79 78 77 76 76 77 77 76 74 72 71 72 72 72 74 75 75 74 74 73 74 74 72 72 72
68 72 72 73 76 74 76 79 79 79 78 77 76 77 77 77 76 71 70 71 72 73 73 74 74 74 74 73 74 73 72 72 72
68 71 72 73 75 73 71 77 79 78 79 78 77 78 77 77 77 75 71 71 72 73 73 73 75 75 74 74 75 74 72 72 74
66 68 68 70 69 68 69 70 71 74 79 78 79 78 77 77 76 76 75 73 71 72 73 73 73 73 74 75 76 74 73 73 72
66 66 66 65 65 66 69 70 71 70 75 77 79 78 77 76 76 76 77 78 73 72 73 73 73 73 74 75 76 77 76 75 73
63 64 64 65 65 66 69 70 70 71 73 74 78 77 76 77 77 77 77 77 77 73 72 75 74 74 73 75 76 78 76 75 74
59 61 64 64 64 66 68 69 69 70 71 72 77 78 77 75 76 77 76 76 76 77 73 73 71 73 76 73 78 72 70 75 76
56 58 62 62 63 63 66 66 66 66 68 70 71 77 77 77 72 72 75 76 75 75 76 76 75 73 74 75 77 69 68 71 79
56 58 59 61 62 62 63 64 64 65 69 68 70 71 74 77 76 74 75 75 75 75 76 76 76 76 76 74 77 68 66 69 76
57 59 60 60 63 63 62 61 62 63 68 69 69 69 69 72 75 76 75 74 76 76 76 76 76 77 77 77 77 65 65 66 74
57 61 61 62 62 63 63 61 61 62 62 64 63 66 68 70 72 74 75 77 75 74 75 76 77 76 77 73 77 65 63 65 77
57 59 61 62 63 62 60 61 60 58 60 59 62 64 65 67 69 70 70 75 76 77 75 74 75 76 77 77 75 76 61 61 76
54 54 59 61 60 59 61 60 59 56 56 59 61 62 64 65 66 68 71 73 77 76 75 74 75 75 76 77 78 66 62 60 62
52 53 55 59 57 58 58 59 55 54 56 58 59 59 60 62 64 66 68 71 75 74 73 76 75 76 75 76 78 79 61 59 59
48 50 52 54 54 55 53 56 56 55 56 57 57 58 59 60 62 64 68 71 73 73 74 74 77 76 76 77 77 77 79 69 64
48 49 50 52 53 52 54 54 54 55 54 57 56 56 56 59 61 63 64 68 72 73 75 74 77 78 79 75 76 77 72 73 74
47 49 50 50 53 53 52 53 53 53 54 54 54 52 55 56 59 60 62 66 72 54 57 56 55 56 67 75 66 58 55 54 54
51 49 49 53 53 52 49 48 50 53 53 54 52 51 53 56 57 60 61 63 67 73 64 51 49 50 53 55 64 52 51 51 51

GFSFLT1_sfc_temp_078.txt.gz
Temp
71 74 74 76 76 76 75 76 75 75 73 73 73 73 72 71 72 74 73 73 73 74 74 76 76 76 76 75 76 76 74 75 76
67 73 74 73 75 77 76 76 75 75 74 74 74 74 73 71 71 71 73 73 74 74 75 78 77 77 76 75 74 75 75 75 73
64 67 71 73 75 76 77 78 77 76 76 75 75 75 75 74 72 72 73 73 73 74 75 76 76 76 77 75 75 74 74 75 75
64 66 70 72 74 73 77 78 78 77 76 75 75 76 76 75 73 72 71 73 74 75 75 75 75 76 76 76 74 74 74 74 75
64 67 69 71 72 70 71 74 77 77 77 76 77 76 75 75 75 73 72 72 73 74 75 75 75 75 76 76 76 75 75 74 77
63 64 65 66 67 67 69 71 70 70 73 75 77 75 76 75 75 73 73 73 73 73 74 74 75 75 75 76 76 76 76 75 76
64 64 64 65 66 66 68 69 70 69 70 71 77 75 76 74 75 75 75 75 73 73 73 74 74 75 76 76 76 77 77 76 76
59 62 62 62 62 66 67 68 69 70 71 71 72 75 75 75 75 75 75 75 74 74 73 74 75 75 76 76 77 78 76 77 76
55 58 60 61 62 62 64 64 65 67 69 70 74 74 73 75 75 74 74 74 74 72 73 73 73 74 75 75 79 71 70 75 77
54 56 58 59 60 61 61 62 63 63 65 69 70 73 74 72 72 73 74 74 73 72 72 73 72 73 74 75 76 68 68 70 78
53 55 57 58 60 61 61 62 61 62 66 69 69 70 74 74 73 73 73 73 72 73 74 73 73 73 73 74 76 66 66 69 77
53 55 58 59 62 63 62 61 60 61 64 63 64 66 69 72 74 73 73 73 73 73 74 73 74 74 73 73 75 65 64 67 76
53 55 58 59 60 62 64 61 60 59 61 61 60 62 64 66 68 70 73 73 72 73 74 75 76 75 75 71 74 64 62 65 77
53 54 55 58 59 59 60 62 59 57 57 58 60 62 63 65 67 67 70 71 74 73 74 72 74 74 75 75 73 74 61 60 75
50 51 53 56 55 57 59 60 58 56 55 58 59 60 62 63 64 66 68 68 70 73 74 73 73 73 75 76 76 65 61 59 61
49 51 51 54 54 54 58 58 58 55 56 57 58 58 60 61 63 64 66 67 67 69 73 73 73 74 74 75 77 77 61 58 58
48 50 50 52 52 52 54 57 56 56 57 57 56 56 57 58 60 62 63 66 67 67 72 74 74 75 75 76 77 77 78 71 66
47 49 50 51 50 51 52 56 55 56 56 56 55 55 55 56 58 59 61 64 65 67 71 73 76 77 77 76 75 77 71 72 75
48 48 50 49 50 51 52 55 53 53 55 54 54 53 55 55 56 58 59 61 64 58 55 54 54 55 68 78 66 59 54 54 53
48 49 49 49 50 51 53 54 51 51 52 52 51 51 53 55 55 58 58 60 60 62 64 54 51 50 51 52 63 50 51 50 51

GFSFLT1_sfc_temp_084.txt.gz
Temp
84 90 91 86 86 92 91 92 92 91 89 85 86 86 85 86 86 90 90 91 93 91 94 94 93 89 90 89 90 89 88 90 91
79 83 90 89 88 92 91 92 91 90 89 87 87 88 87 86 86 86 90 90 91 93 92 96 92 91 90 90 89 88 88 91 89
70 84 83 85 92 93 93 94 94 92 91 88 88 89 89 89 88 87 88 89 88 89 93 91 93 91 90 90 89 89 87 90 89
65 68 79 84 89 87 92 94 94 94 92 90 89 90 89 89 90 89 88 88 88 88 90 91 88 89 88 90 90 90 87 89 90
65 67 72 68 70 78 85 88 92 93 93 93 92 91 88 89 89 90 89 87 89 88 88 90 90 89 88 89 90 90 88 88 91
65 65 67 67 70 70 70 74 81 89 93 94 96 92 89 88 88 89 85 88 89 89 88 88 91 90 89 88 90 89 88 89 89
68 66 66 67 66 66 66 71 73 72 80 90 94 95 92 87 85 85 86 84 88 89 88 87 88 89 89 90 90 91 91 89 88
71 71 69 67 67 67 68 66 66 69 73 77 81 86 90 90 89 87 84 83 83 88 88 88 88 88 89 89 91 94 89 90 90
68 69 70 72 72 70 69 68 67 66 66 67 73 79 82 87 87 87 87 86 85 84 86 87 87 87 88 88 93 79 73 83 89
67 68 69 70 72 73 74 75 73 68 65 66 67 68 79 80 82 82 83 85 85 84 83 85 85 86 87 87 88 73 69 72 91
66 67 68 70 73 73 74 76 75 75 73 66 64 64 65 68 74 76 83 82 82 83 85 84 85 85 85 86 88 70 68 69 87
66 67 69 70 73 73 73 74 75 74 74 73 68 64 62 63 65 69 73 76 81 82 80 82 85 86 85 85 85 67 66 70 87
67 68 69 69 70 72 73 72 75 74 74 74 71 69 67 65 64 65 67 72 77 78 81 83 85 86 87 80 85 69 63 68 88
67 67 67 67 69 69 70 72 72 70 72 72 72 71 72 70 65 63 65 65 71 77 78 78 79 82 85 86 84 84 61 60 84
65 65 66 67 67 67 69 70 70 68 68 71 71 71 70 69 70 71 66 65 66 70 74 75 77 76 79 86 86 70 66 59 61
64 65 65 66 66 65 67 68 68 66 67 68 69 69 69 70 68 70 72 70 68 66 69 73 76 70 73 82 86 84 63 60 58
63 64 63 64 63 63 63 66 66 66 67 68 68 67 68 70 70 63 69 75 77 71 68 68 75 79 73 74 78 83 89 87 78
60 59 60 60 58 58 59 63 64 67 67 67 67 67 69 70 73 73 64 70 75 75 74 65 65 72 76 77 78 78 66 68 83
58 57 56 56 52 55 58 59 61 65 67 66 64 65 68 70 70 72 73 66 71 62 54 51 49 48 55 67 59 55 55 54 53
56 56 56 53 52 55 56 57 56 59 61 65 62 60 65 68 65 70 71 71 71 69 66 55 51 48 48 48 51 50 49 47 48

GFSFLT1_sfc_temp_087.txt.gz
Temp
88 93 93 84 90 88 88 91 95 94 90 87 87 87 87 88 88 91 92 90 87 89 89 96 90 91 90 90 90 90 89 90 91
83 90 92 91 91 79 87 91 93 93 92 89 89 89 88 87 88 88 92 92 91 91 92 83 91 93 90 91 91 91 89 90 89
76 84 90 90 87 82 73 90 92 95 94 91 90 91 90 90 89 89 89 91 90 92 93 94 78 91 91 91 91 90 88 89 91
67 74 77 82 76 72 80 93 90 92 95 93 92 92 91 91 91 91 89 90 90 90 91 91 92 90 91 91 91 90 89 88 91
69 72 73 73 74 71 71 75 77 73 89 95 95 94 92 92 92 92 91 89 90 90 89 91 90 90 90 89 91 91 88 89 92
67 71 74 71 71 72 71 73 76 73 74 74 91 95 95 93 92 91 91 91 90 91 89 89 91 91 88 88 90 90 90 88 90
69 69 72 74 73 69 70 67 67 71 71 76 79 77 89 92 91 92 92 91 90 91 90 89 89 90 91 90 90 91 91 91 89
70 70 70 70 71 71 70 69 68 68 69 72 74 79 83 78 91 90 90 89 88 88 90 90 89 89 90 91 92 95 91 91 91
68 69 72 74 74 74 73 71 69 66 67 68 70 72 73 76 77 78 83 88 86 86 85 87 89 88 89 89 93 80 74 84 91
71 71 72 74 75 76 77 78 77 71 66 67 66 67 67 71 73 73 73 79 82 83 84 86 87 88 89 88 89 74 70 73 92
70 71 72 73 76 76 76 79 78 78 79 68 66 65 66 66 68 70 71 73 78 81 82 81 84 86 87 87 89 71 69 70 88
71 72 74 74 76 77 76 76 77 76 78 78 76 71 68 66 66 66 68 71 71 76 78 81 81 84 85 86 87 69 66 70 87
72 73 74 73 74 76 77 75 77 75 76 77 75 75 74 75 72 68 65 67 68 70 75 77 80 82 86 80 86 71 64 68 88
72 72 71 72 73 73 73 75 75 72 73 73 74 75 75 75 74 73 69 66 67 68 71 73 75 79 81 83 84 84 62 61 85
69 69 71 71 71 71 72 73 72 70 70 72 72 73 73 73 74 74 76 73 70 69 70 70 74 76 76 82 82 71 67 60 61
68 68 69 71 69 68 70 71 70 67 68 70 70 70 70 72 73 74 74 72 73 76 74 73 74 78 79 80 80 79 65 59 59
66 66 65 67 65 64 64 65 66 67 69 70 69 68 68 71 72 72 74 77 77 79 79 79 74 73 75 68 72 81 80 77 71
64 64 64 64 63 61 61 63 63 67 68 69 69 68 69 71 74 74 76 76 78 76 76 72 73 74 74 71 72 72 57 57 64
63 62 63 62 61 60 60 58 60 62 63 63 64 66 70 72 73 74 75 75 76 60 58 55 52 49 57 71 60 53 50 48 49
60 63 62 61 59 60 59 59 57 58 60 60 59 61 62 66 66 72 73 73 73 73 72 52 51 48 48 45 49 46 45 44 45

GFSFLT1_sfc_temp_093.txt.gz
Temp
70 71 70 75 80 81 81 81 80 80 76 74 75 76 75 76 75 73 74 76 74 74 73 77 78 77 77 77 78 78 77 76 76
67 68 72 72 75 81 83 81 81 80 78 78 78 76 76 76 75 75 76 76 79 77 75 77 78 78 78 78 78 77 77 75 75
65 67 71 71 72 72 71 72 76 79 74 76 79 80 79 78 75 76 76 77 77 75 75 75 76 75 76 77 78 78 76 75 75
63 65 66 68 67 68 69 71 71 70 70 71 71 77 80 77 76 77 76 77 78 79 74 74 73 73 75 75 76 77 76 75 76
64 65 65 66 67 67 67 67 70 70 71 71 71 71 72 81 80 78 76 76 78 78 76 74 75 73 72 75 76 77 76 76 78
64 64 64 64 64 64 65 66 67 69 69 70 70 70 71 72 76 80 75 76 78 79 78 76 75 75 74 75 77 77 76 77 76
65 65 65 64 61 61 62 64 64 65 66 69 69 69 70 70 70 71 75 77 78 78 78 78 78 77 77 77 78 78 77 77 76
66 66 66 66 65 64 64 64 64 64 65 67 67 67 68 69 70 71 71 71 75 77 76 78 78 78 78 78 78 82 77 78 77
67 67 69 69 69 67 67 67 67 66 65 65 66 65 66 68 68 69 69 70 71 75 76 77 77 77 77 77 83 76 73 77 77
66 65 65 65 65 64 64 66 67 65 65 68 66 65 66 66 67 67 67 69 69 69 69 73 74 75 74 76 76 72 71 70 75
64 64 64 64 64 64 64 65 66 65 65 65 65 65 65 65 66 66 66 66 66 66 67 68 70 72 74 75 77 70 66 68 72
63 63 63 63 64 64 63 64 65 65 64 64 64 63 64 65 66 66 66 65 65 65 66 67 68 70 71 73 73 66 65 66 72
64 63 63 62 64 63 62 61 63 62 62 61 60 62 62 64 64 64 64 64 64 65 65 66 69 68 70 69 73 66 63 64 70
64 62 63 63 62 60 60 61 60 58 58 57 60 62 62 62 63 63 63 63 63 63 64 66 66 67 68 71 71 69 59 59 68
62 61 62 62 58 58 59 59 58 55 55 57 59 60 60 60 60 63 65 62 62 63 62 63 64 66 68 69 68 60 58 57 57
58 58 58 58 56 55 55 56 55 53 54 57 57 58 58 59 60 60 61 60 60 60 62 61 63 65 65 66 69 66 57 57 59
55 56 55 56 54 53 52 53 54 53 53 53 53 54 55 58 59 59 59 60 62 60 60 61 62 62 61 62 63 64 65 62 62
54 54 54 54 52 51 51 52 51 52 53 52 51 51 53 55 56 56 58 61 61 63 62 59 58 62 61 60 60 62 57 54 58
53 52 53 52 51 51 50 50 50 51 52 51 49 49 51 52 53 54 56 57 58 58 55 53 51 49 51 64 57 52 50 49 44
56 53 53 51 50 50 50 49 55 51 51 51 52 47 48 48 51 53 53 53 54 54 58 55 53 51 50 47 48 47 46 47 42

GFSFLT1_sfc_temp_096.txt.gz
Temp
70 70 70 72 74 77 78 79 78 78 74 73 72 73 73 73 73 72 71 73 71 71 72 74 75 75 74 75 75 75 74 73 74
66 70 70 70 71 73 79 78 78 78 75 74 73 73 73 73 73 73 74 74 74 71 73 75 77 76 76 76 75 75 74 74 74
64 67 71 71 71 71 71 72 74 74 75 73 72 73 75 75 73 73 73 73 74 74 74 75 74 75 76 76 76 75 74 74 73
63 64 66 67 68 69 69 70 70 69 69 70 70 71 71 71 74 74 73 74 75 72 73 73 73 74 74 74 75 75 74 73 74
63 63 64 66 67 68 68 69 69 69 69 70 70 70 71 71 73 73 74 74 74 74 73 73 73 73 72 73 74 74 74 74 76
62 63 62 62 63 64 66 67 69 69 69 69 70 70 70 70 70 72 73 74 75 74 74 73 73 73 72 72 73 74 74 74 75
63 62 61 62 61 62 63 64 65 66 68 70 70 69 69 69 69 70 69 71 72 73 74 74 74 73 73 73 74 75 75 75 74
62 63 64 61 60 61 62 61 63 65 66 66 68 69 69 68 69 70 68 69 70 71 73 74 75 75 74 74 75 79 75 75 74
63 64 65 66 65 65 64 63 63 65 65 65 66 66 67 68 67 68 68 69 69 69 69 72 74 75 74 74 79 72 71 74 74
64 65 64 63 63 64 66 66 67 66 66 67 65 64 65 65 65 65 65 66 66 67 67 68 69 71 73 73 74 68 67 69 72
63 63 62 61 61 62 64 62 62 63 66 66 66 65 65 65 65 65 65 65 65 65 66 67 68 68 70 70 73 67 65 66 70
61 59 59 59 60 60 60 60 61 61 60 61 61 61 63 65 65 64 65 65 65 65 65 65 66 68 68 69 70 63 62 64 71
62 61 60 59 59 59 58 57 60 58 57 57 56 58 60 61 62 62 63 63 63 64 64 65 66 67 67 66 69 60 59 62 69
61 61 59 58 57 55 53 54 56 53 53 52 54 57 58 59 59 61 62 61 61 62 63 64 63 65 67 68 66 63 57 58 67
57 57 56 56 54 53 52 53 53 50 49 52 53 54 55 55 57 59 61 58 60 60 60 60 61 62 65 67 66 59 56 56 58
55 55 54 54 52 50 50 51 51 48 48 51 51 51 51 52 54 56 57 55 56 59 59 58 58 59 60 61 63 63 56 57 59
53 53 52 51 50 49 48 49 49 48 49 50 49 48 48 50 50 51 52 56 57 57 57 57 58 58 58 59 59 60 58 60 57
51 50 50 50 48 47 46 47 47 48 48 48 47 47 47 46 48 47 49 52 52 54 54 50 52 54 53 54 57 62 53 51 58
51 49 48 47 46 46 46 47 47 47 47 47 45 45 45 45 45 46 48 48 51 51 51 50 47 46 47 55 52 48 46 45 44
52 49 48 47 46 46 46 46 46 47 48 48 46 44 44 44 45 45 45 47 45 47 51 51 49 47 48 47 46 45 45 44 42

GFSFLT1_sfc_temp_102.txt.gz
Temp
71 72 73 74 75 76 76 75 76 75 72 71 71 71 71 71 71 70 70 72 71 72 73 75 76 75 75 75 75 75 74 76 76
69 70 71 72 73 73 74 76 76 76 74 74 71 71 71 71 71 72 72 72 73 73 74 75 76 76 76 76 76 75 75 75 76
65 68 69 69 69 72 72 74 75 76 74 73 72 71 72 73 72 73 73 73 73 72 73 75 75 73 75 74 76 76 75 75 76
64 65 67 68 69 69 70 71 72 72 72 71 71 71 71 72 72 73 73 74 74 74 75 74 74 74 74 75 75 76 75 74 75
64 65 66 68 68 68 68 69 70 69 69 71 71 71 72 72 73 74 72 73 74 75 74 74 73 74 74 75 75 76 75 75 75
62 63 64 64 66 67 68 68 68 69 69 69 69 69 69 70 69 69 69 71 72 74 74 74 73 73 74 74 75 75 74 75 75
61 62 62 63 63 64 68 68 67 68 68 69 69 69 69 69 68 68 69 69 70 70 72 74 74 73 73 73 74 74 74 75 75
60 60 61 61 61 62 64 65 66 67 68 69 69 69 69 68 69 69 69 69 69 69 70 71 73 73 74 75 75 78 75 75 76
60 60 61 61 61 62 62 63 63 64 65 66 68 69 68 68 67 68 67 67 68 68 68 69 70 71 72 73 74 68 66 70 76
60 60 61 60 60 60 62 62 63 62 64 65 64 64 65 65 65 65 64 66 66 66 67 68 68 69 70 70 71 62 63 66 71
59 60 60 61 61 60 60 61 62 61 63 62 62 61 61 63 65 63 63 63 64 64 64 66 67 68 69 69 70 61 60 63 71
61 61 60 60 61 59 59 60 60 60 60 59 59 59 59 60 62 61 61 61 61 63 62 62 65 67 67 69 63 58 59 66 70
60 59 59 58 58 58 58 56 58 57 56 57 56 57 57 59 59 59 59 60 61 62 61 62 64 67 67 63 65 56 56 62 65
57 57 56 56 56 54 53 54 56 52 53 51 54 56 56 55 56 56 56 58 60 59 59 60 59 60 60 60 58 56 55 55 61
54 53 54 55 52 51 51 52 53 50 49 51 53 53 53 53 54 56 56 55 56 56 57 57 57 58 58 60 59 55 54 53 54
54 52 51 52 50 49 49 51 51 49 48 51 51 50 50 51 52 53 54 53 53 53 54 55 55 56 55 56 58 57 53 53 53
52 53 51 50 49 49 47 49 49 48 49 50 49 48 48 49 49 49 51 53 53 52 52 52 52 52 52 54 55 54 53 54 54
52 50 50 50 49 47 47 48 48 48 48 49 48 47 48 47 47 47 48 49 49 51 51 50 51 50 51 51 51 51 47 46 51
51 50 50 49 47 47 46 47 47 47 48 48 47 46 47 46 47 47 47 47 48 47 47 46 44 44 46 50 46 44 43 42 43
51 49 48 48 48 48 47 47 47 47 47 47 46 44 45 46 46 46 46 45 45 45 47 46 45 43 44 43 42 42 41 41 41

GFSFLT1_sfc_temp_105.txt.gz
Temp
78 79 82 82 82 83 80 82 82 83 82 80 80 80 80 80 81 83 83 82 83 84 84 84 85 84 84 84 84 84 83 86 87
74 75 80 81 81 82 81 77 81 82 80 80 81 82 81 80 80 81 83 81 82 84 83 85 85 85 85 85 84 83 83 86 83
76 79 78 76 75 81 82 79 81 80 82 80 80 82 82 82 82 81 82 82 81 81 83 83 83 83 84 84 84 84 83 83 83
74 75 75 74 76 78 74 76 77 80 81 79 74 82 81 80 81 82 82 82 81 82 83 82 82 82 82 82 83 83 83 83 83
74 77 77 78 76 73 74 71 71 75 75 77 80 77 81 81 82 81 81 81 82 81 81 82 82 82 82 83 83 84 82 83 83
67 68 69 70 72 73 72 70 69 72 72 73 77 77 74 78 79 80 79 80 80 81 82 82 82 80 82 84 83 82 82 83 83
64 65 65 65 68 69 69 68 68 69 70 70 71 71 71 72 75 77 78 77 78 80 81 82 81 82 81 82 83 83 83 83 82
62 62 63 63 64 68 70 70 68 67 69 70 69 69 69 68 69 74 76 76 76 77 78 79 81 81 81 81 80 82 82 83 83
62 62 62 62 63 64 65 69 70 70 70 71 69 69 68 70 70 73 72 74 74 75 76 77 79 79 79 78 78 64 65 73 83
63 63 62 61 61 61 61 63 64 64 65 67 66 66 67 68 66 66 69 72 73 73 74 75 75 76 78 76 72 61 62 66 82
62 62 60 60 59 59 59 60 60 61 62 62 62 62 63 64 65 65 68 68 66 68 71 73 74 75 75 71 68 59 60 64 80
68 65 60 58 59 59 59 58 60 60 60 61 61 60 61 62 64 66 68 66 65 65 67 69 71 71 69 67 64 56 57 69 76
65 62 60 58 57 57 58 59 60 58 59 58 58 58 60 61 64 67 67 67 67 66 66 65 62 63 65 60 62 55 55 64 76
62 60 59 60 59 58 58 62 62 59 60 58 59 60 59 59 62 61 62 63 65 65 65 62 61 62 60 59 58 55 54 55 67
61 62 59 59 61 62 63 64 64 60 59 61 61 61 62 62 62 65 64 61 60 62 65 64 63 63 64 61 62 54 53 53 54
62 63 63 65 63 60 61 62 63 60 58 60 60 60 59 59 60 61 61 61 61 63 63 61 61 65 63 62 62 61 54 54 54
60 62 61 62 62 60 58 59 60 59 59 59 59 57 57 59 59 58 60 63 62 62 61 61 61 61 57 59 59 57 58 58 60
51 55 60 61 61 60 58 59 58 59 59 60 58 58 58 58 59 59 57 57 59 58 54 54 57 57 58 57 53 50 46 46 53
50 50 54 56 59 58 57 58 58 58 59 59 59 58 59 59 60 60 59 58 56 46 46 44 43 43 49 56 45 43 42 41 41
52 52 55 55 53 58 57 57 57 58 58 59 58 57 57 57 58 59 58 58 58 55 50 45 43 42 42 42 41 41 40 40 41

GFSFLT1_sfc_temp_108.txt.gz
Temp
83 88 92 92 92 92 84 91 91 91 88 85 86 86 86 86 85 89 84 88 92 91 85 91 90 89 89 89 89 89 88 91 92
84 84 89 90 92 92 91 91 91 90 89 87 87 88 86 86 86 86 84 86 85 91 90 93 90 90 90 90 89 89 88 92 88
85 81 83 88 91 91 92 92 91 90 90 88 88 89 88 88 88 88 87 87 86 86 89 89 88 88 89 88 89 89 87 89 89
85 84 81 80 84 88 88 89 82 81 89 88 87 89 89 89 89 89 88 86 89 88 87 86 88 88 87 88 88 88 86 88 89
87 86 86 81 74 77 76 81 83 79 84 84 86 87 87 88 88 88 89 87 89 88 87 87 88 88 87 88 89 88 86 87 91
82 83 83 83 75 73 79 74 72 75 77 83 87 87 87 88 86 88 87 88 88 88 87 88 89 87 88 88 89 87 87 88 87
75 76 75 79 81 75 71 76 71 71 71 73 78 82 83 84 83 87 86 87 86 87 87 87 88 88 88 88 90 89 90 89 88
71 71 69 69 74 75 74 74 71 70 70 72 72 71 77 78 81 82 84 84 84 85 86 87 88 88 88 88 87 91 88 88 88
66 66 68 66 66 76 75 75 73 71 70 71 72 72 70 69 71 72 76 81 82 82 83 85 86 86 87 88 87 63 65 73 86
65 67 68 65 62 65 71 72 75 73 75 77 73 72 70 69 69 68 69 71 77 80 80 82 82 83 80 75 76 61 62 66 87
67 67 63 61 61 59 65 69 74 73 72 69 67 66 67 68 68 68 66 68 69 73 79 79 79 74 75 75 71 59 61 66 81
71 65 64 61 59 59 59 61 63 63 62 63 63 64 64 66 66 67 70 70 72 73 68 74 70 73 74 70 66 56 57 71 82
67 66 60 58 59 58 57 58 59 58 58 59 59 62 65 68 68 70 69 70 73 75 69 66 66 70 69 62 66 54 55 65 84
67 62 60 60 57 56 58 59 58 57 59 58 60 61 64 66 69 70 72 71 74 72 66 65 65 65 65 63 64 60 54 54 71
66 65 65 64 58 56 61 63 62 60 58 61 63 63 62 63 67 72 70 69 70 69 67 65 66 67 70 69 65 55 54 54 55
62 62 63 66 62 59 62 65 65 61 62 66 68 67 66 68 68 69 70 69 69 70 70 70 68 70 69 70 71 69 55 54 56
62 62 60 62 63 63 61 66 68 67 67 67 66 65 65 66 67 67 68 72 72 72 72 71 70 69 68 64 63 58 60 66 68
65 65 67 65 63 64 65 66 66 67 67 67 66 66 66 66 67 67 65 61 65 64 57 58 68 68 67 67 64 56 47 47 56
56 62 66 65 65 65 65 66 65 65 66 66 67 66 68 70 69 69 67 63 57 46 46 44 43 42 51 56 46 43 42 41 41
53 55 61 64 63 62 63 63 64 65 65 66 65 66 65 68 67 69 67 66 64 57 50 45 43 42 43 43 41 42 41 41 41

GFSFLT1_sfc_temp_111.txt.gz
Temp
81 89 89 89 87 82 94 95 94 94 89 87 87 88 87 88 87 90 91 89 76 93 92 91 87 90 91 90 91 91 90 91 92
81 88 92 95 93 93 94 93 93 93 89 88 89 90 88 87 87 87 89 83 89 85 92 91 92 92 90 91 90 91 90 90 90
84 86 85 88 96 96 89 96 95 95 92 90 90 91 90 90 89 89 89 89 87 84 74 89 89 91 91 90 90 91 89 90 90
82 87 88 91 93 90 95 92 90 94 92 90 90 91 91 91 91 91 90 89 89 90 90 89 88 89 89 89 89 90 88 87 87
91 87 89 91 93 92 91 90 89 88 92 91 91 89 89 90 91 91 91 89 89 90 88 89 88 89 88 88 89 86 88 88 89
89 85 86 82 76 83 87 88 85 85 87 85 89 88 90 90 87 89 90 90 90 90 89 89 91 89 88 88 89 89 88 88 88
89 87 85 83 80 74 76 77 76 78 77 81 81 79 78 85 85 89 90 90 90 90 89 88 89 89 89 89 90 90 89 89 89
81 78 83 83 81 78 78 75 73 72 73 71 73 74 75 76 82 84 88 87 88 89 89 89 89 89 89 89 90 85 82 89 90
73 71 72 79 78 80 79 79 75 73 72 78 76 74 74 76 79 76 81 80 78 84 87 87 88 89 89 89 74 63 64 70 88
69 73 69 69 72 74 80 80 79 78 78 80 78 76 74 71 73 70 71 73 78 80 80 83 82 82 77 75 72 60 62 66 83
72 72 68 67 63 67 71 74 77 75 76 74 76 73 73 71 70 68 67 68 68 69 73 77 76 75 75 75 70 58 60 63 81
74 71 68 65 64 60 63 68 72 73 75 72 68 65 66 69 70 71 71 68 66 68 70 69 69 71 71 70 65 56 58 69 83
72 74 67 61 60 59 59 60 67 65 63 64 62 65 65 66 68 69 71 74 74 73 72 71 70 67 67 63 66 55 56 65 86
69 64 61 62 60 56 56 58 59 57 57 56 58 60 65 69 71 71 71 71 71 70 67 66 66 63 62 62 63 60 55 55 72
62 60 60 60 58 59 61 60 57 56 56 59 60 61 62 64 68 73 73 70 70 68 66 64 63 64 70 71 68 56 55 55 56
62 63 63 64 61 57 59 62 61 57 59 62 63 62 62 63 65 69 70 69 68 68 68 71 73 75 74 72 72 67 56 56 57
64 68 68 68 66 64 59 62 61 61 61 63 64 63 64 65 65 67 73 76 77 75 75 74 72 72 72 72 70 67 66 67 68
62 61 61 65 66 67 64 67 64 65 65 65 66 67 69 70 69 71 63 59 61 66 56 53 73 70 69 65 68 57 48 49 60
60 60 60 60 61 63 63 65 66 65 67 69 70 70 72 73 73 72 69 65 58 45 46 44 43 43 54 59 47 44 43 42 42
57 63 66 63 60 62 63 65 64 67 67 69 69 71 69 74 71 74 70 67 65 60 51 45 43 43 43 44 42 43 42 42 42

GFSFLT1_sfc_temp_114.txt.gz
Temp
84 84 83 82 85 81 78 83 84 87 84 82 83 84 84 82 81 81 84 83 77 76 76 84 84 84 84 85 85 86 86 84 84
79 76 77 84 85 85 80 82 84 86 83 83 84 86 84 84 85 84 83 81 77 77 80 84 84 86 85 86 85 87 86 84 84
82 81 74 79 82 87 82 82 88 88 86 84 85 86 85 85 85 84 84 84 80 79 77 75 74 83 84 84 84 86 84 82 82
83 84 83 82 79 82 85 89 89 86 87 85 85 87 86 85 86 86 85 85 85 84 75 76 79 85 86 84 85 85 84 84 82
84 86 87 87 87 79 82 84 82 73 84 84 86 86 83 86 86 86 86 85 86 83 82 82 81 84 85 86 86 83 84 83 84
81 85 86 88 85 76 72 78 76 72 70 76 87 79 85 81 81 84 86 85 86 86 83 84 85 83 84 82 83 82 81 83 84
78 74 83 86 83 79 69 69 79 80 81 80 81 82 80 80 79 79 80 83 85 85 85 83 82 82 83 83 83 82 82 82 81
77 79 76 72 76 77 77 74 73 73 73 72 72 73 73 77 76 75 75 76 81 86 83 85 84 82 82 83 76 70 69 72 76
76 77 74 78 82 79 78 78 75 73 73 74 71 71 75 78 78 77 73 73 76 80 83 82 83 82 80 74 71 63 64 69 75
72 72 73 72 72 78 76 78 78 76 76 77 76 76 77 76 74 72 71 70 71 70 77 79 77 75 74 68 65 60 61 67 80
71 71 69 67 67 68 76 75 79 78 79 75 76 76 74 73 72 70 68 68 68 69 70 71 70 71 70 68 65 58 60 64 78
70 69 67 64 62 64 64 68 70 73 70 71 70 70 72 73 74 72 69 66 67 68 67 66 65 66 66 65 59 57 58 66 78
70 69 66 62 60 59 61 63 65 66 63 62 62 65 67 68 69 70 72 72 70 68 66 62 61 63 63 61 59 57 57 63 71
66 64 60 59 59 57 57 59 59 58 60 58 60 62 64 67 67 67 69 67 69 69 68 65 65 63 61 60 59 58 56 56 64
61 58 60 60 58 56 58 59 58 56 57 59 61 61 62 63 65 69 68 66 66 66 66 64 63 62 64 63 61 57 56 55 57
60 60 59 60 60 60 60 60 59 57 59 61 61 61 62 62 63 65 67 67 67 65 65 63 62 62 67 67 66 64 58 57 57
59 60 61 62 61 59 58 59 61 60 60 61 60 60 61 61 61 56 56 58 66 64 63 67 71 70 69 68 65 61 60 62 63
60 61 63 65 64 63 62 62 61 61 62 61 60 61 61 60 61 57 52 48 48 55 49 48 63 63 61 61 61 53 48 47 53
59 59 60 61 63 64 64 65 62 62 64 67 65 62 62 61 61 61 60 58 54 46 45 44 43 44 54 52 47 45 44 42 42
57 58 59 59 59 59 59 61 64 66 68 68 67 64 67 66 68 67 64 63 60 55 50 46 44 44 45 44 44 44 43 43 43